GW0631 Weather Reports


time (UTC)temp
C
wind
direction
speed
KPH
gust
KPH
rain 1hr
cm
rain 24hr
cm
rain mn
cm
humidity
%
barometer
mb
20260507140456 12 93 1.6 3.2 0.00 0.99 0.99 99 1011.7
20260507135954 12 98 0.0 1.6 0.13 0.99 0.99 99 1011.6
20260507135450 12 93 0.0 0.0 0.13 0.99 0.99 99 1011.3
20260507134948 12 92 4.8 4.8 0.13 0.99 0.99 99 1011.4
20260507134444 12 94 0.0 0.0 0.00 0.97 0.97 99 1011.5
20260507133940 12 97 1.6 1.6 0.00 0.97 0.97 99 1011.4
20260507133436 12 100 3.2 3.2 0.00 0.97 0.97 99 1011.6
20260507132935 12 79 1.6 1.6 0.00 0.97 0.97 99 1011.4
20260507132431 12 85 3.2 4.8 0.18 0.97 0.97 99 1011.6
20260507131927 13 83 0.0 1.6 0.18 0.97 0.97 99 1011.1
20260507131425 13 98 0.0 0.0 0.00 0.94 0.94 99 1011.3
20260507130922 13 89 0.0 1.6 0.00 0.94 0.94 99 1011.4
20260507130418 13 93 1.6 1.6 0.00 0.94 0.94 99 1011.4
20260507125917 13 117 3.2 3.2 0.00 0.94 0.94 99 1011.0
20260507125415 13 97 3.2 3.2 0.00 0.94 0.94 99 1010.9
20260507124912 13 111 1.6 3.2 0.13 0.94 0.94 99 1011.1
20260507124408 13 88 0.0 1.6 0.13 0.94 0.94 99 1011.1
20260507123907 13 92 0.0 0.0 0.00 0.91 0.91 99 1011.1
20260507123403 13 90 0.0 0.0 0.18 0.91 0.91 99 1010.9
20260507122900 13 88 0.0 0.0 0.18 0.91 0.91 99 1010.8
20260507122355 13 102 0.0 0.0 0.00 0.89 0.89 99 1011.2
20260507121851 13 98 0.0 0.0 0.00 0.89 0.89 99 1011.2
20260507121347 13 96 0.0 0.0 0.13 0.89 0.89 99 1011.3
20260507120844 13 103 0.0 0.0 0.13 0.89 0.89 99 1011.2
20260507120340 13 98 0.0 0.0 0.18 0.86 0.86 99 1011.0
20260507115837 13 102 0.0 0.0 0.18 0.86 0.86 99 1011.0
20260507115332 13 95 0.0 0.0 0.36 0.86 0.86 99 1011.1
20260507114828 13 99 0.0 1.6 0.18 0.84 0.84 99 1011.1
20260507114325 13 109 1.6 3.2 0.30 0.81 0.81 99 1011.2
20260507113823 13 91 4.8 4.8 0.43 0.81 0.81 99 1011.3
20260507113320 13 109 0.0 0.0 0.61 0.79 0.79 99 1011.0
20260507112817 14 94 3.2 3.2 0.48 0.74 0.74 99 1010.8
20260507112314 15 83 0.0 1.6 0.18 0.69 0.69 99 1010.8
20260507111812 15 92 0.0 0.0 0.00 0.66 0.66 99 1010.6
20260507111308 15 110 1.6 1.6 0.13 0.66 0.66 99 1010.6
20260507110804 15 97 0.0 0.0 0.13 0.66 0.66 99 1010.4
20260507110301 15 95 0.0 0.0 0.18 0.64 0.64 99 1010.4
20260507105758 15 104 0.0 0.0 0.30 0.64 0.64 99 1010.3
20260507105254 16 75 1.6 1.6 0.30 0.61 0.61 99 1010.2
20260507104751 16 81 3.2 3.2 0.30 0.58 0.58 99 1010.1
20260507104248 16 98 1.6 1.6 0.30 0.56 0.56 99 1009.8
20260507103744 16 101 0.0 1.6 0.36 0.53 0.53 99 1010.0
20260507103240 17 127 0.0 1.6 0.30 0.51 0.51 99 1009.7
20260507102737 17 100 0.0 0.0 0.13 0.48 0.48 99 1009.8
20260507102233 17 116 0.0 0.0 0.13 0.48 0.48 99 1010.0
20260507101730 17 91 1.6 1.6 0.18 0.46 0.46 99 1009.5
20260507101225 18 285 3.2 3.2 0.18 0.46 0.46 99 1009.5
20260507100722 18 70 3.2 3.2 0.13 0.43 0.43 99 1009.3
20260507100221 18 111 0.0 0.0 0.13 0.43 0.43 99 1009.4
20260507095718 18 98 0.0 0.0 0.00 0.41 0.41 99 1009.3
20260507095214 18 110 0.0 0.0 0.18 0.41 0.41 99 1009.5
20260507094711 18 110 0.0 0.0 0.18 0.41 0.41 99 1009.4
20260507094209 18 111 0.0 0.0 0.30 0.38 0.38 99 1009.2
20260507093705 18 108 0.0 0.0 0.61 0.38 0.38 99 1009.2
20260507093204 18 116 0.0 0.0 0.61 0.33 0.33 99 1009.2
20260507092701 18 87 0.0 0.0 0.79 0.30 0.30 99 1009.1
20260507092157 19 78 0.0 0.0 0.48 0.25 0.25 99 1009.1
20260507091653 18 99 0.0 0.0 0.00 0.18 0.18 99 1009.3
20260507091150 18 117 0.0 0.0 0.00 0.18 0.18 99 1009.1
20260507090645 18 118 0.0 0.0 0.00 0.18 0.18 99 1008.9
20260507090143 18 94 0.0 0.0 0.00 0.18 0.18 99 1008.9
20260507085640 18 102 0.0 0.0 0.00 0.18 0.18 99 1008.6
20260507085136 18 87 0.0 0.0 0.00 0.18 0.18 99 1008.6
20260507084633 19 103 0.0 1.6 0.00 0.18 0.18 99 1009.1
20260507084130 19 91 0.0 0.0 0.00 0.18 0.18 99 1008.8
20260507083627 19 105 0.0 0.0 0.00 0.18 0.18 99 1008.9
20260507083124 19 107 0.0 0.0 0.00 0.18 0.18 99 1008.9
20260507082619 19 97 0.0 0.0 0.00 0.18 0.18 99 1009.1
20260507082116 19 136 1.6 1.6 0.00 0.18 0.18 99 1009.0
20260507081613 19 101 0.0 0.0 0.00 0.18 0.18 98 1009.0
20260507081109 19 90 0.0 0.0 0.00 0.18 0.18 98 1008.8
20260507080606 19 106 4.8 8.0 0.00 0.18 0.18 98 1008.6
20260507075557 19 87 1.6 1.6 0.00 0.18 0.18 98 1008.6
20260507075054 19 92 1.6 1.6 0.00 0.18 0.18 98 1008.6
20260507074551 19 205 3.2 4.8 0.00 0.18 0.18 98 1008.6
20260507074049 19 181 1.6 3.2 0.00 0.18 0.18 99 1008.7
20260507073544 19 118 0.0 0.0 0.00 0.18 0.18 99 1008.9
20260507073041 19 101 1.6 1.6 0.00 0.18 0.18 99 1008.8
20260507072539 19 73 0.0 0.0 0.00 0.18 0.18 99 1009.0
20260507072036 19 239 1.6 3.2 0.00 0.18 0.18 99 1008.9
20260507071533 19 88 1.6 3.2 0.00 0.18 0.18 99 1008.8
20260507071030 18 132 1.6 3.2 0.00 0.18 0.18 99 1008.9
20260507070527 18 89 3.2 4.8 0.00 0.18 0.18 99 1008.5
20260507070024 18 51 4.8 4.8 0.00 0.18 0.18 99 1008.7
20260507065520 18 50 1.6 1.6 0.00 0.18 0.18 99 1008.7
20260507065018 18 95 0.0 0.0 0.00 0.18 0.18 99 1008.5
20260507064515 18 146 0.0 1.6 0.00 0.18 0.18 99 1008.6
20260507064014 18 83 1.6 3.2 0.00 0.18 0.18 99 1008.4
20260507063510 19 88 1.6 3.2 0.18 0.18 0.18 98 1008.8
20260507063008 19 92 1.6 3.2 0.18 0.18 0.18 98 1008.5
20260507062504 19 125 1.6 1.6 0.13 0.15 0.15 98 1008.6
20260507062002 19 96 0.0 0.0 0.30 0.15 0.15 97 1008.7
20260507061459 19 160 3.2 4.8 0.30 0.13 0.13 97 1008.6
20260507060957 19 107 0.0 0.0 0.30 0.10 0.10 96 1009.0
20260507060454 19 106 1.6 3.2 0.18 0.08 0.08 96 1009.1
20260507055951 19 96 3.2 4.8 0.13 0.05 0.05 96 1009.5
20260507055446 19 102 1.6 1.6 0.13 0.05 0.05 95 1009.5
20260507054943 19 109 3.2 3.2 0.13 0.05 0.05 95 1009.7
20260507054439 19 81 0.0 1.6 0.00 0.03 0.03 94 1009.9
20260507053936 20 121 1.6 1.6 0.00 0.03 0.03 94 1009.6
20260507053434 20 163 1.6 3.2 0.00 0.03 0.03 93 1009.9
20260507052932 20 142 0.0 3.2 0.00 0.03 0.03 93 1010.0
20260507052429 20 88 1.6 1.6 0.18 0.03 0.03 93 1010.0
20260507051926 20 88 1.6 1.6 0.18 0.03 0.03 92 1010.1
20260507051424 20 322 4.8 9.7 0.00 0.00 0.00 91 1009.9
20260507050921 20 99 0.0 1.6 0.00 0.00 0.00 91 1009.9
20260507050417 20 98 1.6 3.2 0.00 0.00 0.00 90 1010.3
20260507045914 20 110 1.6 1.6 0.00 0.00 0.00 90 1010.3
20260507045411 20 96 0.0 0.0 0.00 0.00 0.00 89 1010.3
20260507044908 20 95 0.0 0.0 0.00 0.00 0.00 88 1010.2
20260507044405 21 127 0.0 1.6 0.00 0.00 0.00 86 1010.0
20260507043901 21 103 0.0 0.0 0.00 0.00 0.00 85 1009.9
20260507043357 21 101 0.0 0.0 0.00 0.00 0.00 84 1009.7
20260507042853 21 151 1.6 1.6 0.00 0.00 0.00 83 1009.6
20260507042350 21 106 1.6 1.6 0.00 0.00 0.00 83 1009.8
20260507041846 21 110 0.0 0.0 0.00 0.00 0.00 82 1010.0
20260507041343 21 92 0.0 0.0 0.00 0.00 0.00 82 1009.9
20260507040840 21 98 0.0 0.0 0.00 0.00 0.00 83 1009.9
20260507040336 21 99 0.0 0.0 0.00 0.00 0.00 83 1009.9
20260507035827 21 112 1.6 1.6 0.00 0.00 0.00 83 1009.9
20260507035322 21 122 0.0 0.0 0.00 0.00 0.00 82 1010.1
20260507034820 21 100 0.0 0.0 0.00 0.00 0.00 82 1009.9
20260507034317 21 100 1.6 3.2 0.00 0.00 0.00 82 1009.9
20260507033815 21 103 1.6 3.2 0.00 0.00 0.00 81 1009.9
20260507033312 21 97 0.0 0.0 0.00 0.00 0.00 81 1009.9
20260507032809 21 110 0.0 0.0 0.00 0.00 0.00 81 1009.7
20260507032306 21 16 1.6 3.2 0.00 0.00 0.00 81 1009.8
20260507031802 21 116 0.0 1.6 0.00 0.00 0.00 81 1009.8
20260507031259 21 329 3.2 3.2 0.00 0.00 0.00 81 1009.8
20260507030755 21 82 3.2 4.8 0.00 0.00 0.00 81 1009.7
20260507030253 21 45 3.2 3.2 0.00 0.00 0.00 80 1009.5
20260507025750 21 86 0.0 1.6 0.00 0.00 0.00 80 1009.5
20260507025247 21 297 6.4 8.0 0.00 0.00 0.00 80 1009.8
20260507024745 21 115 1.6 1.6 0.00 0.00 0.00 80 1009.8
20260507024242 21 140 3.2 3.2 0.00 0.00 0.00 80 1009.9
20260507023737 21 28 4.8 4.8 0.00 0.00 0.00 80 1010.0
20260507023235 21 114 0.0 0.0 0.00 0.00 0.00 80 1009.8
20260507022732 21 97 1.6 1.6 0.00 0.00 0.00 80 1010.2
20260507022228 21 125 0.0 1.6 0.00 0.00 0.00 80 1010.5
20260507021724 21 111 0.0 0.0 0.00 0.00 0.00 79 1010.1
20260507021220 21 107 1.6 1.6 0.00 0.00 0.00 80 1010.1
20260507020719 21 121 1.6 1.6 0.00 0.00 0.00 80 1010.2
20260507020214 21 107 0.0 0.0 0.00 0.00 0.00 79 1010.3
20260507015712 21 99 0.0 0.0 0.00 0.00 0.00 78 1010.2
20260507015209 21 95 0.0 0.0 0.00 0.00 0.00 78 1010.4
20260507014706 21 209 3.2 4.8 0.00 0.00 0.00 77 1010.4
20260507014202 21 156 1.6 1.6 0.00 0.00 0.00 77 1010.3
20260507013659 22 112 0.0 0.0 0.00 0.00 0.00 77 1010.2
20260507013156 22 123 0.0 1.6 0.00 0.00 0.00 76 1010.0
20260507012654 22 107 0.0 0.0 0.00 0.00 0.00 76 1010.3
20260507012149 22 338 1.6 3.2 0.00 0.00 0.00 75 1010.1
20260507011647 22 106 3.2 4.8 0.00 0.00 0.00 76 1009.9
20260507011143 22 37 1.6 1.6 0.00 0.00 0.00 76 1009.9
20260507010638 22 103 0.0 0.0 0.00 0.00 0.00 75 1009.9
20260507010134 22 90 3.2 4.8 0.00 0.00 0.00 75 1009.9
20260507005632 22 93 1.6 1.6 0.00 0.00 0.00 75 1010.2
20260507005127 22 99 0.0 1.6 0.00 0.00 0.00 75 1010.2
20260507004625 22 97 0.0 0.0 0.00 0.00 0.00 75 1010.2
20260507004122 22 156 1.6 3.2 0.00 0.00 0.00 75 1010.5
20260507003618 22 94 0.0 0.0 0.00 0.00 0.00 74 1010.3
20260507003113 22 115 0.0 0.0 0.00 0.00 0.00 74 1010.3
20260507002610 22 106 0.0 0.0 0.00 0.00 0.00 73 1010.3
20260507002106 22 104 0.0 0.0 0.00 0.00 0.00 73 1010.1
20260507001603 22 325 1.6 3.2 0.00 0.00 0.00 73 1010.0
20260507001100 22 102 1.6 1.6 0.00 0.00 0.00 73 1009.9
20260507000556 22 202 1.6 3.2 0.00 0.00 0.00 72 1009.8
20260507000052 22 130 0.0 1.6 0.00 0.00 0.00 72 1010.1
20260506235550 22 112 1.6 1.6 0.00 0.00 0.00 72 1009.9
20260506235044 22 184 3.2 3.2 0.00 0.00 0.00 71 1010.1
20260506234542 23 84 1.6 1.6 0.00 0.00 0.00 71 1009.9
20260506234039 23 91 1.6 1.6 0.00 0.00 0.00 70 1009.7
20260506233536 23 202 1.6 1.6 0.00 0.00 0.00 70 1009.8
20260506233033 23 110 0.0 0.0 0.00 0.00 0.00 69 1009.6
20260506232529 23 110 0.0 0.0 0.00 0.00 0.00 69 1009.7
20260506232025 23 54 0.0 1.6 0.00 0.00 0.00 69 1009.6
20260506231522 23 119 0.0 1.6 0.00 0.00 0.00 69 1009.3
20260506231020 23 129 4.8 8.0 0.00 0.00 0.00 69 1009.6
20260506230516 23 96 0.0 1.6 0.00 0.00 0.00 69 1009.6
20260506230014 23 101 0.0 1.6 0.00 0.00 0.00 69 1009.5
20260506225511 23 104 0.0 0.0 0.00 0.00 0.00 68 1009.6
20260506225007 23 112 0.0 1.6 0.00 0.00 0.00 68 1009.6
20260506224504 24 116 0.0 0.0 0.00 0.00 0.00 68 1009.7
20260506224000 24 115 0.0 0.0 0.00 0.00 0.00 68 1009.7
20260506223456 23 96 0.0 1.6 0.00 0.00 0.00 67 1009.6
20260506222953 24 96 0.0 0.0 0.00 0.00 0.00 68 1009.6
20260506222450 24 108 0.0 1.6 0.00 0.00 0.00 67 1009.5
20260506221947 24 111 0.0 1.6 0.00 0.00 0.00 66 1009.4
20260506221444 24 122 1.6 3.2 0.00 0.00 0.00 67 1009.8
20260506220942 24 124 1.6 1.6 0.00 0.00 0.00 66 1009.7
20260506220437 24 121 0.0 0.0 0.00 0.00 0.00 66 1009.9
20260506215934 24 92 0.0 1.6 0.00 0.00 0.00 67 1009.5
20260506215430 23 168 0.0 1.6 0.00 0.00 0.00 67 1009.5
20260506214926 23 120 0.0 0.0 0.00 0.00 0.00 67 1009.6
20260506214423 23 119 1.6 1.6 0.00 0.00 0.00 67 1009.4
20260506213921 24 124 0.0 0.0 0.00 0.00 0.00 66 1009.4
20260506213418 24 220 0.0 1.6 0.00 0.00 0.00 66 1009.4
20260506212915 24 114 1.6 1.6 0.00 0.00 0.00 66 1009.6
20260506212411 24 275 1.6 3.2 0.00 0.00 0.00 65 1009.5
20260506211906 24 82 1.6 1.6 0.00 0.00 0.00 66 1009.8
20260506211403 24 136 0.0 1.6 0.00 0.00 0.00 66 1009.5
20260506210900 24 207 1.6 3.2 0.00 0.00 0.00 65 1009.4
20260506210356 24 286 1.6 3.2 0.00 0.00 0.00 65 1009.4
20260506205854 24 57 1.6 3.2 0.00 0.00 0.00 65 1009.1
20260506205349 24 14 3.2 3.2 0.00 0.00 0.00 64 1008.9
20260506204846 24 174 0.0 1.6 0.00 0.00 0.00 64 1009.0
20260506204344 24 258 4.8 8.0 0.00 0.00 0.00 64 1008.7
20260506203841 24 186 4.8 4.8 0.00 0.00 0.00 64 1009.0
20260506203338 24 73 4.8 9.7 0.00 0.00 0.00 65 1009.0
20260506202835 24 76 3.2 4.8 0.00 0.00 0.00 63 1008.9
20260506202332 25 106 4.8 11.3 0.00 0.00 0.00 63 1009.0
20260506201829 24 128 1.6 1.6 0.00 0.00 0.00 63 1009.4
20260506201326 24 111 3.2 3.2 0.00 0.00 0.00 64 1009.2
20260506200823 24 130 3.2 3.2 0.00 0.00 0.00 64 1009.3
20260506200319 24 101 6.4 8.0 0.00 0.00 0.00 65 1009.2
20260506195815 24 108 1.6 3.2 0.00 0.00 0.00 65 1009.5
20260506195312 24 133 0.0 1.6 0.00 0.00 0.00 66 1009.5
20260506194809 23 112 0.0 0.0 0.00 0.00 0.00 68 1009.7
20260506194306 23 226 11.3 14.5 0.00 0.00 0.00 67 1009.9
20260506193803 23 112 0.0 1.6 0.00 0.00 0.00 68 1009.8
20260506193300 23 113 0.0 1.6 0.00 0.00 0.00 67 1010.2
20260506192756 23 221 4.8 4.8 0.00 0.00 0.00 67 1010.1
20260506192253 23 103 0.0 1.6 0.00 0.00 0.00 67 1010.3
20260506191750 23 107 0.0 1.6 0.00 0.00 0.00 66 1010.5
20260506191247 24 138 3.2 3.2 0.00 0.00 0.00 65 1010.7
20260506190744 24 120 0.0 1.6 0.00 0.00 0.00 65 1010.7
20260506190240 23 283 4.8 4.8 0.00 0.00 0.00 67 1011.0
20260506185737 24 161 4.8 4.8 0.00 0.00 0.00 66 1010.9
20260506185234 24 99 4.8 8.0 0.00 0.00 0.00 66 1010.7
20260506184731 24 96 1.6 1.6 0.00 0.00 0.00 66 1011.0
20260506184228 24 313 6.4 9.7 0.00 0.00 0.00 65 1011.1
20260506183725 24 116 1.6 3.2 0.00 0.00 0.00 65 1011.2
20260506183221 24 81 0.0 0.0 0.00 0.00 0.00 65 1011.1
20260506182718 24 144 1.6 3.2 0.00 0.00 0.00 66 1011.2
20260506182215 24 218 1.6 3.2 0.00 0.00 0.00 66 1011.4
20260506181713 24 95 1.6 1.6 0.00 0.00 0.00 66 1011.1
20260506181210 24 275 9.7 14.5 0.00 0.00 0.00 67 1011.1
20260506180707 23 258 11.3 12.9 0.00 0.00 0.00 68 1011.0
20260506180203 23 322 4.8 9.7 0.00 0.00 0.00 68 1011.1
20260506175659 23 269 4.8 4.8 0.00 0.00 0.00 69 1011.0
20260506175156 23 107 1.6 1.6 0.00 0.00 0.00 70 1011.0
20260506174649 23 180 1.6 1.6 0.00 0.00 0.00 70 1011.1
20260506174145 22 135 3.2 3.2 0.00 0.00 0.00 71 1011.5
20260506173643 22 88 3.2 3.2 0.00 0.00 0.00 71 1011.3
20260506173140 22 40 3.2 4.8 0.00 0.00 0.00 71 1011.1
20260506172637 22 113 1.6 1.6 0.00 0.00 0.00 72 1011.4
20260506172133 22 135 0.0 3.2 0.00 0.00 0.00 73 1011.6
20260506171631 22 319 4.8 8.0 0.00 0.00 0.00 72 1011.6
20260506171128 22 148 3.2 3.2 0.00 0.00 0.00 74 1011.7
20260506170620 21 110 1.6 1.6 0.00 0.00 0.00 75 1012.2
20260506170117 21 113 11.3 14.5 0.00 0.00 0.00 74 1012.5
20260506165615 21 136 3.2 3.2 0.00 0.00 0.00 76 1012.1
20260506165111 21 124 1.6 1.6 0.00 0.00 0.00 77 1012.3
20260506164608 21 20 3.2 4.8 0.00 0.00 0.00 77 1012.3
20260506164106 21 108 3.2 4.8 0.00 0.00 0.00 77 1012.5
20260506163601 21 134 1.6 1.6 0.00 0.00 0.00 79 1012.4
20260506163057 20 119 0.0 1.6 0.00 0.00 0.00 81 1012.5
20260506162554 20 106 1.6 1.6 0.00 0.00 0.00 80 1012.5
20260506162051 21 100 1.6 1.6 0.00 0.00 0.00 78 1012.5
20260506161549 21 103 4.8 4.8 0.00 0.00 0.00 77 1012.6
20260506161045 21 339 8.0 9.7 0.00 0.00 0.00 77 1012.7
20260506160542 21 275 3.2 3.2 0.00 0.00 0.00 77 1012.7
20260506152721 21 264 4.8 8.0 0.00 0.00 0.00 76 1013.3
20260506152219 21 264 4.8 8.0 0.00 0.00 0.00 76 1013.3
20260506151718 21 221 8.0 11.3 0.00 0.00 0.00 75 1013.4
20260506151214 21 76 1.6 1.6 0.00 0.00 0.00 76 1013.2
20260506150710 21 327 4.8 8.0 0.00 0.00 0.00 76 1013.4
20260506150207 21 148 3.2 4.8 0.00 0.00 0.00 77 1013.3
20260506145704 21 159 1.6 1.6 0.00 0.00 0.00 77 1013.5
20260506145201 21 110 6.4 8.0 0.00 0.00 0.00 76 1013.1
20260506144659 21 135 4.8 8.0 0.00 0.00 0.00 74 1013.6
20260506144155 21 211 1.6 3.2 0.00 0.00 0.00 75 1013.3
20260506143653 21 261 6.4 8.0 0.00 0.00 0.00 76 1013.1
20260506143150 20 148 1.6 1.6 0.00 0.00 0.00 78 1013.2
20260506142649 20 332 6.4 9.7 0.00 0.00 0.00 78 1013.4
20260506142146 20 184 1.6 3.2 0.00 0.00 0.00 79 1013.1
20260506141644 20 264 4.8 8.0 0.00 0.00 0.00 77 1013.3
20260506141142 20 216 4.8 9.7 0.00 0.00 0.00 76 1013.4